Time,TemperatureF,DewpointF,PressureIn,WindDirection,WindDirectionDegrees,WindSpeedMPH,WindSpeedGustMPH,Humidity,HourlyPrecipIn,Conditions,Clouds,dailyrainin,SoftwareType,DateUTC
2013-05-09 00:01:00,55.2,54.1,30.02,NNE,28,2.0,3.0,96,0.01,,,0.00,vanprod-2.3,2013-05-09 05:01:00,
2013-05-09 00:06:00,55.2,54.1,30.02,NNE,28,3.0,3.0,96,0.01,,,0.00,vanprod-2.3,2013-05-09 05:06:00,
2013-05-09 00:11:00,55.2,54.1,30.02,NNE,28,3.0,3.0,96,0.01,,,0.00,vanprod-2.3,2013-05-09 05:11:00,
2013-05-09 00:16:00,55.2,53.8,30.02,NNE,28,3.0,5.0,95,0.00,,,0.00,vanprod-2.3,2013-05-09 05:16:00,
2013-05-09 00:21:00,55.2,53.8,30.02,NNE,28,2.0,5.0,95,0.00,,,0.00,vanprod-2.3,2013-05-09 05:21:00,
2013-05-09 00:26:00,55.2,53.8,30.02,NNE,28,3.0,5.0,95,0.00,,,0.00,vanprod-2.3,2013-05-09 05:26:00,
2013-05-09 00:31:00,55.2,53.8,30.02,NNE,28,4.0,4.0,95,0.00,,,0.00,vanprod-2.3,2013-05-09 05:31:00,
2013-05-09 00:36:00,55.2,53.8,30.02,NNE,28,2.0,5.0,95,0.00,,,0.00,vanprod-2.3,2013-05-09 05:36:00,
2013-05-09 00:41:00,55.2,53.8,30.01,NNE,28,2.0,3.0,95,0.00,,,0.00,vanprod-2.3,2013-05-09 05:41:00,
2013-05-09 00:46:00,55.2,53.8,30.01,NNE,28,2.0,2.0,95,0.00,,,0.00,vanprod-2.3,2013-05-09 05:46:00,
2013-05-09 00:51:00,55.2,53.8,30.01,NNE,28,2.0,3.0,95,0.00,,,0.00,vanprod-2.3,2013-05-09 05:51:00,
2013-05-09 00:56:00,55.2,53.8,30.01,NNE,28,3.0,5.0,95,0.00,,,0.00,vanprod-2.3,2013-05-09 05:56:00,
2013-05-09 01:01:00,55.2,53.5,30.01,NNE,28,3.0,5.0,94,0.00,,,0.00,vanprod-2.3,2013-05-09 06:01:00,
2013-05-09 01:06:00,55.2,53.5,30.01,NNE,28,3.0,4.0,94,0.00,,,0.00,vanprod-2.3,2013-05-09 06:06:00,
2013-05-09 01:11:00,55.2,53.5,30.01,NNE,28,4.0,6.0,94,0.00,,,0.00,vanprod-2.3,2013-05-09 06:11:00,
2013-05-09 01:16:00,55.4,53.4,30.01,NNE,28,3.0,4.0,93,0.00,,,0.00,vanprod-2.3,2013-05-09 06:16:00,
2013-05-09 01:21:00,55.4,53.4,30.01,NNE,28,3.0,3.0,93,0.00,,,0.00,vanprod-2.3,2013-05-09 06:21:00,
2013-05-09 01:26:00,55.4,53.4,30.01,NNE,28,2.0,3.0,93,0.00,,,0.00,vanprod-2.3,2013-05-09 06:26:00,
2013-05-09 01:31:00,55.4,53.4,30.01,NNE,28,3.0,8.0,93,0.00,,,0.00,vanprod-2.3,2013-05-09 06:31:00,
2013-05-09 01:36:00,55.4,53.4,30.01,NNE,28,4.0,5.0,93,0.01,,,0.01,vanprod-2.3,2013-05-09 06:36:00,
2013-05-09 01:41:00,55.2,53.5,30.01,NNE,28,5.0,8.0,94,0.03,,,0.03,vanprod-2.3,2013-05-09 06:41:00,
2013-05-09 01:46:00,55.1,53.4,30.01,NE,40,6.0,13.0,94,0.05,,,0.05,vanprod-2.3,2013-05-09 06:46:00,
2013-05-09 01:51:00,55.1,53.4,30.01,NE,44,4.0,6.0,94,0.08,,,0.08,vanprod-2.3,2013-05-09 06:51:00,
2013-05-09 01:56:00,54.9,53.5,30.01,NE,44,4.0,5.0,95,0.11,,,0.11,vanprod-2.3,2013-05-09 06:56:00,
2013-05-09 02:01:00,54.9,53.5,30.01,NE,44,4.0,8.0,95,0.13,,,0.13,vanprod-2.3,2013-05-09 07:01:00,
2013-05-09 02:06:00,54.8,53.4,30.01,NE,44,4.0,6.0,95,0.14,,,0.14,vanprod-2.3,2013-05-09 07:06:00,
2013-05-09 02:11:00,54.8,53.4,30.01,NE,43,4.0,6.0,95,0.14,,,0.14,vanprod-2.3,2013-05-09 07:11:00,
2013-05-09 02:16:00,54.9,53.2,30.01,NE,44,4.0,6.0,94,0.14,,,0.14,vanprod-2.3,2013-05-09 07:16:00,
2013-05-09 02:21:00,54.9,53.2,30.01,NE,44,5.0,8.0,94,0.15,,,0.15,vanprod-2.3,2013-05-09 07:21:00,
2013-05-09 02:26:00,54.9,53.2,30.01,NE,45,3.0,4.0,94,0.16,,,0.16,vanprod-2.3,2013-05-09 07:26:00,
2013-05-09 02:31:00,54.9,53.2,30.00,NE,45,3.0,5.0,94,0.17,,,0.17,vanprod-2.3,2013-05-09 07:31:00,
2013-05-09 02:36:00,54.9,53.2,30.01,NE,45,2.0,4.0,94,0.16,,,0.17,vanprod-2.3,2013-05-09 07:36:00,
2013-05-09 02:41:00,54.9,53.2,30.01,NE,45,2.0,4.0,94,0.14,,,0.17,vanprod-2.3,2013-05-09 07:41:00,
2013-05-09 02:46:00,54.8,53.4,30.01,NE,45,2.0,3.0,95,0.12,,,0.17,vanprod-2.3,2013-05-09 07:46:00,
2013-05-09 02:51:00,54.8,53.4,30.01,NE,45,3.0,5.0,95,0.09,,,0.17,vanprod-2.3,2013-05-09 07:51:00,
2013-05-09 02:56:00,54.8,53.4,30.00,NE,45,3.0,4.0,95,0.06,,,0.17,vanprod-2.3,2013-05-09 07:56:00,
2013-05-09 03:01:00,54.6,53.2,30.01,NE,45,3.0,3.0,95,0.05,,,0.18,vanprod-2.3,2013-05-09 08:01:00,
2013-05-09 03:06:00,54.8,53.4,30.01,NE,45,2.0,2.0,95,0.04,,,0.18,vanprod-2.3,2013-05-09 08:06:00,
2013-05-09 03:11:00,54.8,53.4,30.01,NE,45,2.0,3.0,95,0.05,,,0.19,vanprod-2.3,2013-05-09 08:11:00,
2013-05-09 03:16:00,54.6,53.2,30.00,NE,45,3.0,6.0,95,0.05,,,0.19,vanprod-2.3,2013-05-09 08:16:00,
2013-05-09 03:21:00,54.6,53.2,30.00,NE,45,4.0,6.0,95,0.04,,,0.19,vanprod-2.3,2013-05-09 08:21:00,
2013-05-09 03:26:00,54.6,53.2,30.00,NE,45,3.0,6.0,95,0.03,,,0.19,vanprod-2.3,2013-05-09 08:26:00,
2013-05-09 03:31:00,54.6,53.2,30.00,NE,45,3.0,4.0,95,0.02,,,0.19,vanprod-2.3,2013-05-09 08:31:00,
2013-05-09 03:36:00,54.6,52.9,30.00,NE,45,3.0,7.0,94,0.02,,,0.19,vanprod-2.3,2013-05-09 08:36:00,
2013-05-09 03:41:00,54.8,53.1,30.00,NE,45,3.0,5.0,94,0.02,,,0.19,vanprod-2.3,2013-05-09 08:41:00,
2013-05-09 03:46:00,54.6,52.9,30.00,NE,45,3.0,3.0,94,0.02,,,0.19,vanprod-2.3,2013-05-09 08:46:00,
2013-05-09 03:51:00,54.6,52.9,30.00,NE,45,3.0,3.0,94,0.02,,,0.19,vanprod-2.3,2013-05-09 08:51:00,
2013-05-09 03:56:00,54.6,52.9,30.00,NE,45,2.0,3.0,94,0.02,,,0.19,vanprod-2.3,2013-05-09 08:56:00,
2013-05-09 04:01:00,54.6,52.9,30.00,NE,45,2.0,3.0,94,0.01,,,0.19,vanprod-2.3,2013-05-09 09:01:00,
2013-05-09 04:06:00,54.6,52.9,30.00,NE,45,2.0,3.0,94,0.01,,,0.19,vanprod-2.3,2013-05-09 09:06:00,
2013-05-09 04:11:00,54.6,53.2,30.00,NE,45,3.0,3.0,95,0.00,,,0.19,vanprod-2.3,2013-05-09 09:11:00,
2013-05-09 04:16:00,54.6,53.2,30.00,NE,45,2.0,2.0,95,0.00,,,0.19,vanprod-2.3,2013-05-09 09:16:00,
2013-05-09 04:21:00,54.5,53.1,30.00,NE,45,2.0,2.0,95,0.00,,,0.19,vanprod-2.3,2013-05-09 09:21:00,
2013-05-09 04:26:00,54.5,53.1,30.00,NE,45,2.0,3.0,95,0.00,,,0.19,vanprod-2.3,2013-05-09 09:26:00,
2013-05-09 04:31:00,54.5,53.1,30.00,NE,45,2.0,3.0,95,0.00,,,0.19,vanprod-2.3,2013-05-09 09:31:00,
2013-05-09 04:36:00,54.5,53.1,30.00,NE,45,2.0,3.0,95,0.00,,,0.19,vanprod-2.3,2013-05-09 09:36:00,
2013-05-09 04:41:00,54.5,53.1,30.00,NE,45,2.0,3.0,95,0.00,,,0.19,vanprod-2.3,2013-05-09 09:41:00,
2013-05-09 04:46:00,54.3,52.9,30.00,NE,45,2.0,3.0,95,0.00,,,0.19,vanprod-2.3,2013-05-09 09:46:00,
2013-05-09 04:51:00,54.3,52.9,30.00,NE,45,1.0,0.0,95,0.00,,,0.19,vanprod-2.3,2013-05-09 09:51:00,
2013-05-09 04:56:00,54.3,52.9,30.00,NE,45,2.0,2.0,95,0.00,,,0.19,vanprod-2.3,2013-05-09 09:56:00,
2013-05-09 05:01:00,54.3,52.9,30.00,NE,45,2.0,2.0,95,0.00,,,0.19,vanprod-2.3,2013-05-09 10:01:00,
2013-05-09 05:06:00,54.3,52.9,30.00,NE,45,3.0,3.0,95,0.00,,,0.19,vanprod-2.3,2013-05-09 10:06:00,
2013-05-09 05:11:00,54.2,52.8,30.00,NE,45,4.0,4.0,95,0.00,,,0.19,vanprod-2.3,2013-05-09 10:11:00,
2013-05-09 05:16:00,54.2,52.8,30.00,NE,45,1.0,3.0,95,0.00,,,0.19,vanprod-2.3,2013-05-09 10:16:00,
2013-05-09 05:21:00,54.2,52.8,30.00,NE,45,2.0,3.0,95,0.00,,,0.19,vanprod-2.3,2013-05-09 10:21:00,
2013-05-09 05:26:00,54.2,52.8,30.00,NE,45,2.0,4.0,95,0.00,,,0.19,vanprod-2.3,2013-05-09 10:26:00,
2013-05-09 05:31:00,54.3,52.9,30.01,NE,45,3.0,3.0,95,0.00,,,0.19,vanprod-2.3,2013-05-09 10:31:00,
2013-05-09 05:36:00,54.2,52.8,30.01,NE,45,2.0,4.0,95,0.00,,,0.19,vanprod-2.3,2013-05-09 10:36:00,
2013-05-09 05:41:00,54.2,52.8,30.01,NE,45,2.0,4.0,95,0.00,,,0.19,vanprod-2.3,2013-05-09 10:41:00,
2013-05-09 05:46:00,54.0,52.6,30.01,NE,45,3.0,3.0,95,0.00,,,0.19,vanprod-2.3,2013-05-09 10:46:00,
2013-05-09 05:51:00,54.0,52.6,30.01,NE,45,2.0,5.0,95,0.00,,,0.19,vanprod-2.3,2013-05-09 10:51:00,
2013-05-09 05:56:00,53.9,52.5,30.01,NE,45,2.0,3.0,95,0.00,,,0.19,vanprod-2.3,2013-05-09 10:56:00,
2013-05-09 06:01:00,53.9,52.8,30.01,NE,45,3.0,5.0,96,0.00,,,0.19,vanprod-2.3,2013-05-09 11:01:00,
2013-05-09 06:06:00,53.9,52.8,30.01,NE,45,3.0,3.0,96,0.00,,,0.19,vanprod-2.3,2013-05-09 11:06:00,
2013-05-09 06:11:00,53.9,52.8,30.01,NE,45,2.0,6.0,96,0.00,,,0.19,vanprod-2.3,2013-05-09 11:11:00,
2013-05-09 06:16:00,53.9,52.8,30.01,NE,45,3.0,3.0,96,0.00,,,0.19,vanprod-2.3,2013-05-09 11:16:00,
2013-05-09 06:21:00,53.7,52.6,30.01,NE,45,2.0,4.0,96,0.00,,,0.19,vanprod-2.3,2013-05-09 11:21:00,
2013-05-09 06:26:00,53.9,52.8,30.01,NE,45,2.0,2.0,96,0.00,,,0.19,vanprod-2.3,2013-05-09 11:26:00,
2013-05-09 06:31:00,53.9,52.5,30.01,NE,45,2.0,3.0,95,0.00,,,0.19,vanprod-2.3,2013-05-09 11:31:00,
2013-05-09 06:36:00,53.9,52.5,30.01,NE,45,3.0,3.0,95,0.00,,,0.19,vanprod-2.3,2013-05-09 11:36:00,
2013-05-09 06:41:00,53.9,52.5,30.01,NE,45,4.0,4.0,95,0.00,,,0.19,vanprod-2.3,2013-05-09 11:41:00,
2013-05-09 06:46:00,53.9,52.5,30.01,NE,45,2.0,4.0,95,0.00,,,0.19,vanprod-2.3,2013-05-09 11:46:00,
2013-05-09 06:51:00,53.9,52.5,30.01,NE,45,3.0,5.0,95,0.00,,,0.19,vanprod-2.3,2013-05-09 11:51:00,
2013-05-09 06:56:00,53.9,52.5,30.01,NE,45,5.0,6.0,95,0.00,,,0.19,vanprod-2.3,2013-05-09 11:56:00,
2013-05-09 07:01:00,54.0,52.6,30.01,NE,45,3.0,3.0,95,0.00,,,0.19,vanprod-2.3,2013-05-09 12:01:00,
2013-05-09 07:06:00,54.0,52.6,30.02,NE,45,4.0,4.0,95,0.00,,,0.19,vanprod-2.3,2013-05-09 12:06:00,
2013-05-09 07:11:00,54.0,52.6,30.02,NE,45,2.0,2.0,95,0.00,,,0.19,vanprod-2.3,2013-05-09 12:11:00,
2013-05-09 07:16:00,54.0,52.6,30.02,NE,45,2.0,2.0,95,0.00,,,0.19,vanprod-2.3,2013-05-09 12:16:00,
2013-05-09 07:21:00,54.0,52.6,30.02,NE,45,3.0,3.0,95,0.00,,,0.19,vanprod-2.3,2013-05-09 12:21:00,
2013-05-09 07:26:00,53.9,52.5,30.02,NE,45,3.0,3.0,95,0.00,,,0.19,vanprod-2.3,2013-05-09 12:26:00,
2013-05-09 07:31:00,53.9,52.5,30.03,NE,45,4.0,4.0,95,0.00,,,0.19,vanprod-2.3,2013-05-09 12:31:00,
2013-05-09 07:36:00,53.9,52.5,30.03,NE,45,3.0,3.0,95,0.00,,,0.19,vanprod-2.3,2013-05-09 12:36:00,
2013-05-09 07:41:00,53.9,52.5,30.03,NE,45,1.0,0.0,95,0.00,,,0.19,vanprod-2.3,2013-05-09 12:41:00,
2013-05-09 07:46:00,53.9,52.5,30.03,NE,45,3.0,6.0,95,0.00,,,0.19,vanprod-2.3,2013-05-09 12:46:00,
2013-05-09 07:51:00,53.9,52.5,30.03,NE,45,2.0,2.0,95,0.00,,,0.19,vanprod-2.3,2013-05-09 12:51:00,
2013-05-09 07:56:00,53.7,52.3,30.03,NE,45,2.0,2.0,95,0.00,,,0.19,vanprod-2.3,2013-05-09 12:56:00,
2013-05-09 08:01:00,53.7,52.3,30.03,NE,45,2.0,3.0,95,0.00,,,0.19,vanprod-2.3,2013-05-09 13:01:00,
2013-05-09 08:06:00,53.7,52.3,30.03,NE,45,3.0,5.0,95,0.00,,,0.19,vanprod-2.3,2013-05-09 13:06:00,
2013-05-09 08:11:00,53.7,52.3,30.03,NE,45,2.0,3.0,95,0.00,,,0.19,vanprod-2.3,2013-05-09 13:11:00,
2013-05-09 08:16:00,53.7,52.3,30.03,NE,45,2.0,2.0,95,0.00,,,0.19,vanprod-2.3,2013-05-09 13:16:00,
2013-05-09 08:21:00,53.7,52.3,30.04,NE,45,2.0,0.0,95,0.00,,,0.19,vanprod-2.3,2013-05-09 13:21:00,
2013-05-09 08:26:00,53.9,52.5,30.04,NE,45,2.0,6.0,95,0.00,,,0.19,vanprod-2.3,2013-05-09 13:26:00,
2013-05-09 08:31:00,53.9,52.2,30.04,NE,45,2.0,0.0,94,0.00,,,0.19,vanprod-2.3,2013-05-09 13:31:00,
2013-05-09 08:36:00,53.9,52.2,30.04,NE,45,3.0,5.0,94,0.00,,,0.19,vanprod-2.3,2013-05-09 13:36:00,
2013-05-09 08:41:00,54.0,52.3,30.04,NE,45,3.0,6.0,94,0.00,,,0.19,vanprod-2.3,2013-05-09 13:41:00,
2013-05-09 08:46:00,54.0,52.3,30.04,NE,45,4.0,7.0,94,0.00,,,0.19,vanprod-2.3,2013-05-09 13:46:00,
2013-05-09 08:51:00,53.9,52.2,30.04,NE,45,3.0,3.0,94,0.00,,,0.19,vanprod-2.3,2013-05-09 13:51:00,
2013-05-09 08:56:00,53.9,52.2,30.04,NE,45,1.0,1.0,94,0.00,,,0.19,vanprod-2.3,2013-05-09 13:56:00,
2013-05-09 09:01:00,53.6,51.9,30.04,NE,45,4.0,4.0,94,0.00,,,0.19,vanprod-2.3,2013-05-09 14:01:00,
2013-05-09 09:06:00,53.4,52.0,30.05,NE,43,6.0,6.0,95,0.00,,,0.19,vanprod-2.3,2013-05-09 14:06:00,
2013-05-09 09:11:00,53.3,51.9,30.05,NE,42,4.0,8.0,95,0.00,,,0.19,vanprod-2.3,2013-05-09 14:11:00,
2013-05-09 09:16:00,53.3,51.9,30.05,NE,42,3.0,4.0,95,0.00,,,0.19,vanprod-2.3,2013-05-09 14:16:00,
2013-05-09 09:21:00,53.3,51.9,30.05,NE,42,3.0,7.0,95,0.00,,,0.19,vanprod-2.3,2013-05-09 14:21:00,
2013-05-09 09:26:00,53.1,51.7,30.05,NE,42,2.0,2.0,95,0.00,,,0.19,vanprod-2.3,2013-05-09 14:26:00,
2013-05-09 09:31:00,53.3,52.2,30.05,NE,42,2.0,0.0,96,0.00,,,0.19,vanprod-2.3,2013-05-09 14:31:00,
2013-05-09 09:36:00,53.3,52.2,30.05,NE,42,0.0,1.0,96,0.00,,,0.19,vanprod-2.3,2013-05-09 14:36:00,
2013-05-09 09:41:00,53.3,52.2,30.06,NE,42,2.0,3.0,96,0.00,,,0.19,vanprod-2.3,2013-05-09 14:41:00,
2013-05-09 09:46:00,53.1,52.0,30.06,NE,42,1.0,4.0,96,0.00,,,0.19,vanprod-2.3,2013-05-09 14:46:00,
2013-05-09 09:51:00,53.1,52.0,30.06,NE,42,2.0,2.0,96,0.00,,,0.19,vanprod-2.3,2013-05-09 14:51:00,
2013-05-09 09:56:00,53.0,51.9,30.06,NE,42,1.0,0.0,96,0.00,,,0.19,vanprod-2.3,2013-05-09 14:56:00,
2013-05-09 10:01:00,53.1,52.0,30.06,NE,42,1.0,4.0,96,0.00,,,0.19,vanprod-2.3,2013-05-09 15:01:00,
2013-05-09 10:06:00,53.0,51.9,30.06,NE,42,2.0,0.0,96,0.00,,,0.19,vanprod-2.3,2013-05-09 15:06:00,
2013-05-09 10:11:00,53.0,51.9,30.06,NE,42,1.0,1.0,96,0.00,,,0.19,vanprod-2.3,2013-05-09 15:11:00,
2013-05-09 10:16:00,53.1,52.0,30.06,NE,42,1.0,1.0,96,0.00,,,0.19,vanprod-2.3,2013-05-09 15:16:00,
2013-05-09 10:21:00,53.0,51.9,30.06,NE,42,2.0,2.0,96,0.00,,,0.19,vanprod-2.3,2013-05-09 15:21:00,
2013-05-09 10:26:00,53.0,51.6,30.06,NE,42,3.0,5.0,95,0.00,,,0.19,vanprod-2.3,2013-05-09 15:26:00,
2013-05-09 10:31:00,53.0,51.6,30.07,NE,42,4.0,4.0,95,0.00,,,0.19,vanprod-2.3,2013-05-09 15:31:00,
2013-05-09 10:36:00,53.0,51.6,30.06,NE,42,1.0,1.0,95,0.00,,,0.19,vanprod-2.3,2013-05-09 15:36:00,
2013-05-09 10:41:00,52.8,51.1,30.06,NE,42,3.0,5.0,94,0.00,,,0.19,vanprod-2.3,2013-05-09 15:41:00,
2013-05-09 10:46:00,52.8,51.1,30.06,NE,42,3.0,5.0,94,0.00,,,0.19,vanprod-2.3,2013-05-09 15:46:00,
2013-05-09 10:51:00,52.8,51.1,30.06,NE,42,2.0,0.0,94,0.00,,,0.19,vanprod-2.3,2013-05-09 15:51:00,
2013-05-09 10:56:00,53.0,51.3,30.07,NE,42,1.0,1.0,94,0.00,,,0.19,vanprod-2.3,2013-05-09 15:56:00,
2013-05-09 11:01:00,53.0,51.0,30.07,NE,41,5.0,5.0,93,0.00,,,0.19,vanprod-2.3,2013-05-09 16:01:00,
2013-05-09 11:06:00,53.0,50.7,30.07,NE,38,6.0,6.0,92,0.00,,,0.19,vanprod-2.3,2013-05-09 16:06:00,
2013-05-09 11:11:00,53.0,50.7,30.07,NE,38,4.0,4.0,92,0.00,,,0.19,vanprod-2.3,2013-05-09 16:11:00,
2013-05-09 11:16:00,53.0,50.4,30.07,NE,38,3.0,3.0,91,0.00,,,0.19,vanprod-2.3,2013-05-09 16:16:00,
2013-05-09 11:21:00,53.0,50.4,30.07,NE,38,3.0,7.0,91,0.00,,,0.19,vanprod-2.3,2013-05-09 16:21:00,
2013-05-09 11:26:00,53.0,49.9,30.07,NE,38,5.0,5.0,89,0.00,,,0.19,vanprod-2.3,2013-05-09 16:26:00,
2013-05-09 11:31:00,53.1,49.9,30.07,NE,34,5.0,10.0,89,0.00,,,0.19,vanprod-2.3,2013-05-09 16:31:00,
2013-05-09 11:36:00,53.6,50.1,30.07,NNE,32,5.0,5.0,88,0.00,,,0.19,vanprod-2.3,2013-05-09 16:36:00,
2013-05-09 11:41:00,53.7,49.9,30.07,NNE,21,7.0,8.0,87,0.00,,,0.19,vanprod-2.3,2013-05-09 16:41:00,
2013-05-09 11:46:00,54.0,50.2,30.07,NNE,21,5.0,6.0,87,0.00,,,0.19,vanprod-2.3,2013-05-09 16:46:00,
2013-05-09 11:51:00,53.9,49.5,30.07,NNE,14,6.0,7.0,85,0.00,,,0.19,vanprod-2.3,2013-05-09 16:51:00,
2013-05-09 11:56:00,53.9,50.1,30.07,NNE,14,5.0,9.0,87,0.00,,,0.19,vanprod-2.3,2013-05-09 16:56:00,
2013-05-09 12:01:00,53.6,49.5,30.07,NNE,14,4.0,5.0,86,0.00,,,0.19,vanprod-2.3,2013-05-09 17:01:00,
2013-05-09 12:06:00,53.6,49.5,30.07,NNE,14,4.0,4.0,86,0.00,,,0.19,vanprod-2.3,2013-05-09 17:06:00,
2013-05-09 12:11:00,53.4,49.3,30.07,NNE,14,5.0,5.0,86,0.00,,,0.19,vanprod-2.3,2013-05-09 17:11:00,
2013-05-09 12:16:00,53.3,49.2,30.07,North,11,5.0,5.0,86,0.00,,,0.19,vanprod-2.3,2013-05-09 17:16:00,
2013-05-09 12:21:00,53.3,49.5,30.08,North,11,4.0,4.0,87,0.00,,,0.19,vanprod-2.3,2013-05-09 17:21:00,
2013-05-09 12:26:00,53.1,49.3,30.08,North,11,6.0,6.0,87,0.00,,,0.19,vanprod-2.3,2013-05-09 17:26:00,
2013-05-09 12:31:00,53.0,49.2,30.07,North,11,6.0,7.0,87,0.00,,,0.19,vanprod-2.3,2013-05-09 17:31:00,
2013-05-09 12:36:00,52.8,49.0,30.07,North,11,4.0,5.0,87,0.00,,,0.19,vanprod-2.3,2013-05-09 17:36:00,
2013-05-09 12:41:00,52.8,49.0,30.07,North,11,4.0,4.0,87,0.00,,,0.19,vanprod-2.3,2013-05-09 17:41:00,
2013-05-09 12:46:00,52.7,48.9,30.07,North,11,5.0,5.0,87,0.00,,,0.19,vanprod-2.3,2013-05-09 17:46:00,
2013-05-09 12:51:00,52.7,48.9,30.07,North,11,6.0,6.0,87,0.00,,,0.19,vanprod-2.3,2013-05-09 17:51:00,
2013-05-09 12:56:00,52.8,49.4,30.07,NNE,15,6.0,6.0,88,0.00,,,0.19,vanprod-2.3,2013-05-09 17:56:00,
2013-05-09 13:01:00,52.8,49.4,30.07,NNE,17,5.0,5.0,88,0.00,,,0.19,vanprod-2.3,2013-05-09 18:01:00,
2013-05-09 13:06:00,52.8,49.4,30.07,NNE,17,3.0,5.0,88,0.00,,,0.19,vanprod-2.3,2013-05-09 18:06:00,
2013-05-09 13:11:00,53.0,49.9,30.07,NNE,17,3.0,4.0,89,0.00,,,0.19,vanprod-2.3,2013-05-09 18:11:00,
2013-05-09 13:16:00,53.0,49.9,30.07,NNE,17,4.0,4.0,89,0.00,,,0.19,vanprod-2.3,2013-05-09 18:16:00,
2013-05-09 13:21:00,53.0,49.9,30.07,NNE,17,5.0,6.0,89,0.00,,,0.19,vanprod-2.3,2013-05-09 18:21:00,
2013-05-09 13:26:00,53.0,49.9,30.07,NNE,17,3.0,3.0,89,0.00,,,0.19,vanprod-2.3,2013-05-09 18:26:00,
2013-05-09 13:31:00,53.0,50.2,30.07,NNE,17,5.0,5.0,90,0.00,,,0.19,vanprod-2.3,2013-05-09 18:31:00,
2013-05-09 13:36:00,53.1,50.2,30.07,NNE,17,4.0,4.0,90,0.00,,,0.19,vanprod-2.3,2013-05-09 18:36:00,
2013-05-09 13:41:00,53.4,49.9,30.07,NNE,17,6.0,6.0,88,0.00,,,0.19,vanprod-2.3,2013-05-09 18:41:00,
2013-05-09 13:46:00,53.7,50.2,30.07,NNE,28,6.0,6.0,88,0.00,,,0.19,vanprod-2.3,2013-05-09 18:46:00,
2013-05-09 13:51:00,54.0,50.5,30.07,NNE,28,2.0,4.0,88,0.00,,,0.19,vanprod-2.3,2013-05-09 18:51:00,
2013-05-09 13:56:00,54.6,50.8,30.07,NNE,28,4.0,4.0,87,0.00,,,0.19,vanprod-2.3,2013-05-09 18:56:00,
2013-05-09 14:01:00,55.1,51.3,30.07,NNE,31,4.0,4.0,87,0.00,,,0.19,vanprod-2.3,2013-05-09 19:01:00,
2013-05-09 14:06:00,55.4,51.3,30.07,NNE,30,7.0,7.0,86,0.00,,,0.19,vanprod-2.3,2013-05-09 19:06:00,
2013-05-09 14:11:00,55.5,51.7,30.07,NNE,30,6.0,9.0,87,0.00,,,0.19,vanprod-2.3,2013-05-09 19:11:00,
2013-05-09 14:16:00,55.7,51.9,30.07,NNE,30,4.0,4.0,87,0.00,,,0.19,vanprod-2.3,2013-05-09 19:16:00,
2013-05-09 14:21:00,56.1,52.0,30.06,NNE,30,4.0,4.0,86,0.00,,,0.19,vanprod-2.3,2013-05-09 19:21:00,
2013-05-09 14:26:00,56.4,52.3,30.07,NNE,30,4.0,5.0,86,0.00,,,0.19,vanprod-2.3,2013-05-09 19:26:00,
2013-05-09 14:31:00,56.5,52.1,30.07,NNE,30,4.0,4.0,85,0.00,,,0.19,vanprod-2.3,2013-05-09 19:31:00,
2013-05-09 14:36:00,56.5,52.1,30.06,NE,35,4.0,5.0,85,0.00,,,0.19,vanprod-2.3,2013-05-09 19:36:00,
2013-05-09 14:41:00,56.5,52.4,30.06,NE,35,4.0,4.0,86,0.00,,,0.19,vanprod-2.3,2013-05-09 19:41:00,
2013-05-09 14:46:00,56.5,52.1,30.06,NE,40,6.0,6.0,85,0.00,,,0.19,vanprod-2.3,2013-05-09 19:46:00,
2013-05-09 14:51:00,56.7,52.6,30.06,NE,40,5.0,7.0,86,0.00,,,0.19,vanprod-2.3,2013-05-09 19:51:00,
2013-05-09 14:56:00,56.8,52.7,30.06,NE,40,4.0,4.0,86,0.00,,,0.19,vanprod-2.3,2013-05-09 19:56:00,
2013-05-09 15:01:00,57.1,52.3,30.06,NE,40,6.0,6.0,84,0.00,,,0.19,vanprod-2.3,2013-05-09 20:01:00,
2013-05-09 15:06:00,57.1,52.3,30.06,NE,40,6.0,7.0,84,0.00,,,0.19,vanprod-2.3,2013-05-09 20:06:00,
2013-05-09 15:11:00,57.3,52.8,30.06,NE,42,3.0,5.0,85,0.00,,,0.19,vanprod-2.3,2013-05-09 20:11:00,
2013-05-09 15:16:00,57.0,51.9,30.06,NE,44,6.0,6.0,83,0.00,,,0.19,vanprod-2.3,2013-05-09 20:16:00,
2013-05-09 15:21:00,56.8,52.0,30.06,NE,44,7.0,7.0,84,0.00,,,0.19,vanprod-2.3,2013-05-09 20:21:00,
2013-05-09 15:26:00,56.7,52.2,30.06,NE,44,7.0,9.0,85,0.00,,,0.19,vanprod-2.3,2013-05-09 20:26:00,
2013-05-09 15:31:00,56.5,52.1,30.07,NE,48,6.0,7.0,85,0.00,,,0.19,vanprod-2.3,2013-05-09 20:31:00,
2013-05-09 15:36:00,56.5,52.1,30.07,NE,47,5.0,5.0,85,0.00,,,0.19,vanprod-2.3,2013-05-09 20:36:00,
2013-05-09 15:41:00,56.5,52.1,30.07,NE,47,6.0,6.0,85,0.00,,,0.19,vanprod-2.3,2013-05-09 20:41:00,
2013-05-09 15:46:00,56.8,52.3,30.07,NE,47,5.0,5.0,85,0.00,,,0.19,vanprod-2.3,2013-05-09 20:46:00,
2013-05-09 15:51:00,56.7,51.9,30.06,NNE,33,8.0,9.0,84,0.00,,,0.19,vanprod-2.3,2013-05-09 20:51:00,
2013-05-09 15:56:00,57.0,52.5,30.06,NE,43,7.0,10.0,85,0.00,,,0.19,vanprod-2.3,2013-05-09 20:56:00,
2013-05-09 16:01:00,57.0,52.2,30.06,NE,35,7.0,7.0,84,0.00,,,0.19,vanprod-2.3,2013-05-09 21:01:00,
2013-05-09 16:06:00,57.1,52.0,30.06,NE,44,8.0,8.0,83,0.00,,,0.19,vanprod-2.3,2013-05-09 21:06:00,
2013-05-09 16:11:00,57.5,52.1,30.06,NE,51,6.0,8.0,82,0.00,,,0.19,vanprod-2.3,2013-05-09 21:11:00,
2013-05-09 16:16:00,57.6,51.8,30.06,NNE,30,10.0,10.0,81,0.00,,,0.19,vanprod-2.3,2013-05-09 21:16:00,
2013-05-09 16:21:00,57.6,52.2,30.06,NNE,30,6.0,6.0,82,0.00,,,0.19,vanprod-2.3,2013-05-09 21:21:00,
2013-05-09 16:26:00,57.5,51.7,30.06,NNE,27,8.0,8.0,81,0.00,,,0.19,vanprod-2.3,2013-05-09 21:26:00,
2013-05-09 16:31:00,57.5,52.4,30.06,NNE,31,5.0,10.0,83,0.00,,,0.19,vanprod-2.3,2013-05-09 21:31:00,
2013-05-09 16:36:00,58.1,52.0,30.06,NE,35,6.0,6.0,80,0.00,,,0.19,vanprod-2.3,2013-05-09 21:36:00,
2013-05-09 16:41:00,58.1,51.6,30.06,NE,41,6.0,6.0,79,0.00,,,0.19,vanprod-2.3,2013-05-09 21:41:00,
2013-05-09 16:46:00,58.1,51.3,30.06,NE,49,9.0,9.0,78,0.00,,,0.19,vanprod-2.3,2013-05-09 21:46:00,
2013-05-09 16:51:00,57.9,51.1,30.06,NE,41,8.0,8.0,78,0.00,,,0.19,vanprod-2.3,2013-05-09 21:51:00,
2013-05-09 16:56:00,57.3,50.9,30.06,NE,44,8.0,8.0,79,0.00,,,0.19,vanprod-2.3,2013-05-09 21:56:00,
2013-05-09 17:01:00,57.0,50.9,30.06,NE,42,7.0,8.0,80,0.00,,,0.19,vanprod-2.3,2013-05-09 22:01:00,
2013-05-09 17:06:00,56.8,50.7,30.06,NNE,27,9.0,9.0,80,0.00,,,0.19,vanprod-2.3,2013-05-09 22:06:00,
2013-05-09 17:11:00,56.5,50.4,30.06,NE,40,6.0,7.0,80,0.00,,,0.19,vanprod-2.3,2013-05-09 22:11:00,
2013-05-09 17:16:00,56.5,50.7,30.06,NE,34,5.0,7.0,81,0.00,,,0.19,vanprod-2.3,2013-05-09 22:16:00,
2013-05-09 17:21:00,56.5,50.7,30.06,NNE,25,8.0,8.0,81,0.00,,,0.19,vanprod-2.3,2013-05-09 22:21:00,
2013-05-09 17:26:00,56.5,50.7,30.06,NNE,31,8.0,8.0,81,0.00,,,0.19,vanprod-2.3,2013-05-09 22:26:00,
2013-05-09 17:31:00,56.7,50.9,30.06,NE,36,5.0,5.0,81,0.00,,,0.19,vanprod-2.3,2013-05-09 22:31:00,
2013-05-09 17:36:00,56.8,50.7,30.07,NNE,32,8.0,8.0,80,0.00,,,0.19,vanprod-2.3,2013-05-09 22:36:00,
2013-05-09 17:41:00,56.8,50.4,30.06,NNE,31,6.0,6.0,79,0.00,,,0.19,vanprod-2.3,2013-05-09 22:41:00,
2013-05-09 17:46:00,57.1,50.7,30.06,NNE,31,8.0,10.0,79,0.00,,,0.19,vanprod-2.3,2013-05-09 22:46:00,
2013-05-09 17:51:00,57.6,51.1,30.06,NNE,32,4.0,4.0,79,0.00,,,0.19,vanprod-2.3,2013-05-09 22:51:00,
2013-05-09 17:56:00,57.8,51.3,30.06,NE,35,5.0,6.0,79,0.00,,,0.19,vanprod-2.3,2013-05-09 22:56:00,
2013-05-09 18:01:00,58.1,51.3,30.06,NE,37,5.0,5.0,78,0.00,,,0.19,vanprod-2.3,2013-05-09 23:01:00,
2013-05-09 18:06:00,58.2,50.3,30.06,NE,53,6.0,6.0,75,0.00,,,0.19,vanprod-2.3,2013-05-09 23:06:00,
2013-05-09 18:11:00,58.2,50.0,30.06,NE,44,4.0,5.0,74,0.00,,,0.19,vanprod-2.3,2013-05-09 23:11:00,
2013-05-09 18:16:00,58.2,50.0,30.06,NE,50,7.0,7.0,74,0.00,,,0.19,vanprod-2.3,2013-05-09 23:16:00,
2013-05-09 18:21:00,58.1,50.2,30.07,NE,47,3.0,3.0,75,0.00,,,0.19,vanprod-2.3,2013-05-09 23:21:00,
2013-05-09 18:26:00,57.9,49.7,30.07,NE,40,7.0,7.0,74,0.00,,,0.19,vanprod-2.3,2013-05-09 23:26:00,
2013-05-09 18:31:00,57.8,49.6,30.07,NE,47,4.0,5.0,74,0.00,,,0.19,vanprod-2.3,2013-05-09 23:31:00,
2013-05-09 18:36:00,57.6,49.7,30.07,NE,47,3.0,6.0,75,0.00,,,0.19,vanprod-2.3,2013-05-09 23:36:00,
2013-05-09 18:41:00,57.5,48.9,30.07,NE,47,5.0,7.0,73,0.00,,,0.19,vanprod-2.3,2013-05-09 23:41:00,
2013-05-09 18:46:00,57.3,48.4,30.07,NE,48,5.0,7.0,72,0.00,,,0.19,vanprod-2.3,2013-05-09 23:46:00,
2013-05-09 18:51:00,57.0,48.1,30.07,NE,49,6.0,6.0,72,0.00,,,0.19,vanprod-2.3,2013-05-09 23:51:00,
2013-05-09 18:56:00,56.8,48.3,30.07,NE,50,4.0,4.0,73,0.00,,,0.19,vanprod-2.3,2013-05-09 23:56:00,
2013-05-09 19:01:00,56.7,48.2,30.07,NE,48,4.0,4.0,73,0.00,,,0.19,vanprod-2.3,2013-05-10 00:01:00,
2013-05-09 19:06:00,56.5,48.3,30.08,NE,51,5.0,5.0,74,0.00,,,0.19,vanprod-2.3,2013-05-10 00:06:00,
2013-05-09 19:11:00,56.1,47.9,30.08,NE,52,6.0,6.0,74,0.00,,,0.19,vanprod-2.3,2013-05-10 00:11:00,
2013-05-09 19:16:00,55.8,47.6,30.08,NE,55,7.0,7.0,74,0.00,,,0.19,vanprod-2.3,2013-05-10 00:16:00,
2013-05-09 19:21:00,55.5,47.7,30.08,ENE,59,8.0,8.0,75,0.00,,,0.19,vanprod-2.3,2013-05-10 00:21:00,
2013-05-09 19:26:00,55.4,47.6,30.08,ENE,59,4.0,6.0,75,0.00,,,0.19,vanprod-2.3,2013-05-10 00:26:00,
2013-05-09 19:31:00,55.2,47.4,30.08,ENE,58,6.0,6.0,75,0.00,,,0.19,vanprod-2.3,2013-05-10 00:31:00,
2013-05-09 19:36:00,54.9,47.1,30.08,NE,55,5.0,5.0,75,0.00,,,0.19,vanprod-2.3,2013-05-10 00:36:00,
2013-05-09 19:41:00,54.6,47.2,30.09,NE,49,7.0,7.0,76,0.00,,,0.19,vanprod-2.3,2013-05-10 00:41:00,
2013-05-09 19:46:00,54.2,46.8,30.09,NE,49,6.0,6.0,76,0.00,,,0.19,vanprod-2.3,2013-05-10 00:46:00,
2013-05-09 19:51:00,53.6,46.2,30.09,NE,39,6.0,6.0,76,0.00,,,0.19,vanprod-2.3,2013-05-10 00:51:00,
2013-05-09 19:56:00,53.3,45.9,30.09,NE,36,9.0,9.0,76,0.00,,,0.19,vanprod-2.3,2013-05-10 00:56:00,
2013-05-09 20:01:00,52.8,45.8,30.09,NE,41,6.0,7.0,77,0.00,,,0.19,vanprod-2.3,2013-05-10 01:01:00,
2013-05-09 20:06:00,52.7,45.7,30.09,NE,44,9.0,13.0,77,0.00,,,0.19,vanprod-2.3,2013-05-10 01:06:00,
2013-05-09 20:11:00,52.4,45.1,30.10,NE,37,5.0,7.0,76,0.00,,,0.19,vanprod-2.3,2013-05-10 01:11:00,
2013-05-09 20:16:00,52.1,44.8,30.10,NE,37,6.0,6.0,76,0.00,,,0.19,vanprod-2.3,2013-05-10 01:16:00,
2013-05-09 20:21:00,52.0,45.0,30.10,NE,37,6.0,6.0,77,0.00,,,0.19,vanprod-2.3,2013-05-10 01:21:00,
2013-05-09 20:26:00,51.8,44.8,30.11,NE,38,6.0,6.0,77,0.00,,,0.19,vanprod-2.3,2013-05-10 01:26:00,
2013-05-09 20:31:00,51.5,44.5,30.11,NE,38,5.0,6.0,77,0.00,,,0.19,vanprod-2.3,2013-05-10 01:31:00,
2013-05-09 20:36:00,51.4,44.4,30.11,NE,41,4.0,6.0,77,0.00,,,0.19,vanprod-2.3,2013-05-10 01:36:00,
2013-05-09 20:41:00,51.2,44.2,30.12,NE,42,4.0,6.0,77,0.00,,,0.19,vanprod-2.3,2013-05-10 01:41:00,
2013-05-09 20:46:00,51.1,43.8,30.12,NE,42,5.0,5.0,76,0.00,,,0.19,vanprod-2.3,2013-05-10 01:46:00,
2013-05-09 20:51:00,50.9,44.0,30.12,NE,42,4.0,4.0,77,0.00,,,0.19,vanprod-2.3,2013-05-10 01:51:00,
2013-05-09 20:56:00,50.9,44.0,30.12,NE,42,4.0,5.0,77,0.00,,,0.19,vanprod-2.3,2013-05-10 01:56:00,
2013-05-09 21:01:00,50.8,43.9,30.12,NE,42,3.0,3.0,77,0.00,,,0.19,vanprod-2.3,2013-05-10 02:01:00,
2013-05-09 21:06:00,50.6,43.7,30.12,NE,42,6.0,6.0,77,0.00,,,0.19,vanprod-2.3,2013-05-10 02:06:00,
2013-05-09 21:11:00,50.6,44.0,30.12,NE,42,4.0,5.0,78,0.00,,,0.19,vanprod-2.3,2013-05-10 02:11:00,
2013-05-09 21:16:00,50.6,44.0,30.13,NE,42,3.0,4.0,78,0.00,,,0.19,vanprod-2.3,2013-05-10 02:16:00,
2013-05-09 21:21:00,50.5,44.2,30.13,NE,42,4.0,4.0,79,0.00,,,0.19,vanprod-2.3,2013-05-10 02:21:00,
2013-05-09 21:26:00,50.3,44.4,30.13,NE,42,2.0,4.0,80,0.00,,,0.19,vanprod-2.3,2013-05-10 02:26:00,
2013-05-09 21:31:00,50.0,44.4,30.14,NE,42,4.0,4.0,81,0.00,,,0.19,vanprod-2.3,2013-05-10 02:31:00,
2013-05-09 21:36:00,49.9,44.3,30.14,NE,42,3.0,3.0,81,0.00,,,0.19,vanprod-2.3,2013-05-10 02:36:00,
2013-05-09 21:41:00,49.7,44.1,30.14,NE,42,4.0,4.0,81,0.00,,,0.19,vanprod-2.3,2013-05-10 02:41:00,
2013-05-09 21:46:00,49.6,44.0,30.14,NE,42,3.0,6.0,81,0.00,,,0.19,vanprod-2.3,2013-05-10 02:46:00,
2013-05-09 21:51:00,49.6,44.0,30.14,NE,42,4.0,4.0,81,0.00,,,0.19,vanprod-2.3,2013-05-10 02:51:00,
2013-05-09 21:56:00,49.6,43.7,30.15,NE,42,3.0,3.0,80,0.00,,,0.19,vanprod-2.3,2013-05-10 02:56:00,
2013-05-09 22:01:00,49.4,43.8,30.15,NE,42,4.0,5.0,81,0.00,,,0.19,vanprod-2.3,2013-05-10 03:01:00,
2013-05-09 22:06:00,49.3,42.7,30.15,NE,44,6.0,6.0,78,0.00,,,0.19,vanprod-2.3,2013-05-10 03:06:00,
2013-05-09 22:11:00,49.1,42.5,30.15,NE,42,4.0,4.0,78,0.00,,,0.19,vanprod-2.3,2013-05-10 03:11:00,
2013-05-09 22:16:00,48.9,42.0,30.15,NE,44,5.0,5.0,77,0.00,,,0.19,vanprod-2.3,2013-05-10 03:16:00,
2013-05-09 22:21:00,48.7,41.5,30.15,NE,45,5.0,6.0,76,0.00,,,0.19,vanprod-2.3,2013-05-10 03:21:00,
2013-05-09 22:26:00,48.7,41.5,30.15,NE,45,4.0,4.0,76,0.00,,,0.19,vanprod-2.3,2013-05-10 03:26:00,
2013-05-09 22:31:00,48.6,41.4,30.15,NE,45,3.0,3.0,76,0.00,,,0.19,vanprod-2.3,2013-05-10 03:31:00,
2013-05-09 22:36:00,48.6,41.0,30.15,NE,45,5.0,5.0,75,0.00,,,0.19,vanprod-2.3,2013-05-10 03:36:00,
2013-05-09 22:41:00,48.6,40.7,30.15,NE,45,4.0,4.0,74,0.00,,,0.19,vanprod-2.3,2013-05-10 03:41:00,
2013-05-09 22:46:00,48.6,41.0,30.15,NE,45,2.0,2.0,75,0.00,,,0.19,vanprod-2.3,2013-05-10 03:46:00,
2013-05-09 22:51:00,48.4,40.9,30.15,NE,45,2.0,3.0,75,0.00,,,0.19,vanprod-2.3,2013-05-10 03:51:00,
2013-05-09 22:56:00,48.4,40.9,30.15,NE,45,1.0,1.0,75,0.00,,,0.19,vanprod-2.3,2013-05-10 03:56:00,
2013-05-09 23:01:00,48.4,40.2,30.15,NE,47,3.0,3.0,73,0.00,,,0.19,vanprod-2.3,2013-05-10 04:01:00,
2013-05-09 23:06:00,48.3,39.7,30.15,NE,47,2.0,5.0,72,0.00,,,0.19,vanprod-2.3,2013-05-10 04:06:00,
2013-05-09 23:11:00,48.1,39.5,30.15,NE,47,2.0,2.0,72,0.00,,,0.19,vanprod-2.3,2013-05-10 04:11:00,
2013-05-09 23:16:00,48.0,39.4,30.15,NE,47,1.0,2.0,72,0.00,,,0.19,vanprod-2.3,2013-05-10 04:16:00,
2013-05-09 23:21:00,47.8,39.6,30.15,NE,47,2.0,2.0,73,0.00,,,0.19,vanprod-2.3,2013-05-10 04:21:00,
2013-05-09 23:26:00,47.8,39.6,30.15,NE,47,1.0,1.0,73,0.00,,,0.19,vanprod-2.3,2013-05-10 04:26:00,
2013-05-09 23:31:00,47.7,38.8,30.15,NE,47,2.0,5.0,71,0.00,,,0.19,vanprod-2.3,2013-05-10 04:31:00,
2013-05-09 23:36:00,47.7,38.4,30.15,NE,47,3.0,3.0,70,0.00,,,0.19,vanprod-2.3,2013-05-10 04:36:00,
2013-05-09 23:41:00,47.5,37.5,30.15,NE,47,3.0,5.0,68,0.00,,,0.19,vanprod-2.3,2013-05-10 04:41:00,
2013-05-09 23:46:00,47.5,37.5,30.15,NE,47,2.0,2.0,68,0.00,,,0.19,vanprod-2.3,2013-05-10 04:46:00,
2013-05-09 23:51:00,47.4,37.4,30.15,NE,47,2.0,2.0,68,0.00,,,0.19,vanprod-2.3,2013-05-10 04:51:00,
2013-05-09 23:56:00,47.2,37.6,30.15,NE,47,0.0,1.0,69,0.00,,,0.19,vanprod-2.3,2013-05-10 04:56:00,